Regional Weather Roundup
Issued by NWS State College, PA

Home | Current Version | Previous Version | Text Only | Print | Product List | Glossary On
Versions: 1 2 3 4 5 6 7 8 9 10 11 12 13 14 15 16 17 18 19 20 21 22 23 24 25 26 27 28 29 30 31 32 33 34 35 36 37 38 39 40 41 42 43 44 45 46 47 48 49 50
553
ASUS41 KCTP 310310
RWRCTP

REGIONAL WEATHER ROUNDUP
NATIONAL WEATHER SERVICE STATE COLLEGE PA
1100 PM EDT SAT JUL 30 2016

Note: "fair" indicates few or no clouds below 12,000 feet with no
significant weather and/or obstructions to visibility.

* = STATION THAT DOES NOT REPORT PRECIPITATION /E.G. RAIN...SNOW...ETC/
    THUNDER OR FOG.

PAZ002>004-007>009-013>016-020>023-029>032-310400-
WESTERN PENNSYLVANIA

CITY           SKY/WX    TMP DP  RH WIND       PRES   REMARKS
ERIE           CLOUDY    73  67  81 SE10      29.97R
MEADVILLE      PTCLDY    69  67  93 E6        30.01R
FRANKLIN*      PTCLDY    70  64  83 E8        30.02S
NEW CASTLE     FAIR      69  68  96 S3        30.00R FOG
BEAVER COUNTY  NOT AVBL
BUTLER*        PTCLDY    70  66  88 NW3       30.03R
PITTSBURGH INT PTCLDY    69  66  90 W3        29.99R
PITTSBURGH     CLOUDY    71  69  93 S3        29.97S FOG
INDIANA*       CLOUDY    70  70 100 E5        30.03F
LATROBE        PTCLDY    68  68 100 CALM      30.00S FOG
WASHINGTON CO* CLEAR     68  64  88 S5        30.00R
$$

PAZ004>006-010>012-017>019-024>028-033>037-041-042-045-046-049>053-310400-
CENTRAL PENNSYLVANIA

CITY           SKY/WX    TMP DP  RH WIND       PRES   REMARKS
BRADFORD       CLOUDY    66  63  90 E6        30.05F
DUBOIS         CLOUDY    67  64  90 E6        30.03S
CLEARFIELD     CLOUDY    69  65  86 N3        30.03S
JOHNSTOWN      MOCLDY    68  64  87 E5        30.04S
ALTOONA        CLOUDY    70  70 100 CALM      30.02S FOG
STATE COLLEGE  CLOUDY    69  68  98 NE3       30.01F
WILLIAMSPORT   HVY RAIN  71  68  90 E6        29.99S FOG
SELINSGROVE    CLOUDY    73  71  93 SE5       30.00S
FT INDIANTOWN  CLOUDY    70  70 100 NE2       30.01F
CAPITAL CITY   LGT RAIN  74  69  85 SE10      29.99F
HARRISBURG     CLOUDY    73  71  93 SE10      29.99S
YORK           CLOUDY    73  70  90 E5        30.00R
$$

PAZ038>040-043-044-047-048-054-055-060>062-067>071-310400-
EASTERN PENNSYLVANIA

CITY           SKY/WX    TMP DP  RH WIND       PRES   REMARKS
SCRANTON       CLOUDY    70  68  93 NE3       30.03F
MOUNT POCONO   FOG       65  65 100 E6        30.08S VSB 3/4
ALLENTOWN      CLOUDY    71  68  90 NE5       30.03S
QUAKERTOWN*    CLOUDY    72  72 100 CALM      30.04S
READING        CLOUDY    70  68  93 CALM      30.01F
LANCASTER      CLOUDY    70  69  97 SE6       30.02R
COATESVILLE    LGT RAIN  72  70  94 E6        30.04S
POTTSTOWN      CLOUDY    72  72 100 VRB3      30.03S FOG
BLUE BELL      CLOUDY    72  72 100 CALM      30.01S
DOYLESTOWN     CLOUDY    71  71 100 CALM      30.02F
WILLOW GROVE   NOT AVBL
NORTH PHILA    LGT RAIN  76  74  93 SE5       30.03R
PHILADELPHIA   LGT RAIN  76  73  91 SE5       30.01F
$$




USA.gov is the U.S. government's official web portal to all federal, state and local government web resources and services.